This demonstration page uses our WeatherBlox Daily Observations layout. Learn more.

Left ArrowRight Arrow

Hourly Observations for June 28, 2017

Temp ( °F °C ) Dew Point ( °F °C ) Humidity (%) Winds ( mph kmh ) Pressure ( in mb ) Visibility ( mi km ) Precip ( " mm )
12:53 am 00:53 Mostly Clear 66 18.9 60 15.6 81 81 Calm 30.08 1019 10 16 0.00 0.00
1:53 am 01:53 Mostly Clear 66 18.9 59 15 78 78 Calm 30.08 1019 10 16 0.00 0.00
2:53 am 02:53 Partly Cloudy 63 17.2 60 15.6 90 90 Calm 30.07 1018 10 16 0.00 0.00
3:53 am 03:53 Mostly Clear 63 17.2 61 16.1 93 93 Calm 30.07 1018 10 16 0.00 0.00
4:53 am 04:53 Clear 62 16.7 61 16.1 96 96 Calm 30.08 1019 10 16 0.00 0.00
5:53 am 05:53 Clear 62 16.7 61 16.1 96 96 Calm 30.09 1019 10 16 0.00 0.00
6:31 am 06:31 Mostly Sunny 62 16.7 60 15.6 93 93 Calm 30.12 1020 10 16 0.00 0.00
6:53 am 06:53 Mostly Sunny 62 16.7 61 16.1 96 96 Calm 30.10 1019 10 16 0.00 0.00
7:53 am 07:53 Sunny 66 18.9 61 16.1 84 84 Calm 30.11 1020 10 16 0.00 0.00
8:53 am 08:53 Sunny 71 21.7 62 16.7 73 73 NNE 6 9 30.11 1020 10 16 0.00 0.00
9:53 am 09:53 Sunny 77 25 63 17.2 62 62 NE 3 6 30.13 1020 10 16 0.00 0.00
10:53 am 10:53 Sunny 80 26.7 63 17.2 56 56 VRB 5 7 30.13 1020 10 16 0.00 0.00
11:53 am 11:53 Sunny 83 28.3 64 17.8 53 53 VRB 5 7 30.14 1021 10 16 0.00 0.00
12:53 pm 12:53 Partly Cloudy 83 28.3 62 16.7 49 49 E 9 15 30.13 1020 10 16 0.00 0.00
1:53 pm 13:53 Mostly Cloudy 85 29.4 61 16.1 45 45 VRB 5 7 30.11 1020 10 16 0.00 0.00
2:53 pm 14:53 Mostly Sunny 86 30 62 16.7 45 45 E 10 17 30.10 1019 10 16 0.00 0.00
3:53 pm 15:53 Mostly Cloudy 85 29.4 62 16.7 46 46 SE 8 13 30.09 1019 10 16 0.00 0.00
4:53 pm 16:53 Partly Cloudy 88 31.1 63 17.2 43 43 SE 8 13 30.06 1018 10 16 0.00 0.00
5:53 pm 17:53 Mostly Sunny 87 30.6 61 16.1 42 42 VRB 7 11 30.06 1018 10 16 0.00 0.00
6:53 pm 18:53 Mostly Sunny 86 30 61 16.1 43 43 ESE 7 11 30.07 1018 10 16 0.00 0.00
7:53 pm 19:53 Sunny 85 29.4 63 17.2 48 48 SE 6 9 30.07 1018 10 16 0.00 0.00
8:53 pm 20:53 Partly Cloudy 82 27.8 65 18.3 56 56 SE 5 7 30.08 1019 10 16 0.00 0.00
9:53 pm 21:53 Mostly Clear 80 26.7 66 18.9 62 62 ESE 6 9 30.08 1019 10 16 0.00 0.00
10:53 pm 22:53 Clear 79 26.1 67 19.4 67 67 ESE 5 7 30.10 1019 10 16 0.00 0.00
11:53 pm 23:53 Clear 77 25 67 19.4 71 71 ESE 6 9 30.11 1020 10 16 0.00 0.00

Powered by AerisWeather